[Iaude] MPEC J229: 2024 JB7 [a=1.83,e=0.52,i=2.8,H=26.0]
    mpec at cfa.harvard.edu 
    mpec at cfa.harvard.edu
       
    Thu May  9 10:20:13 EDT 2024
    
    
  
M.P.E.C. 2024-J229                                  Issued 2024 May 9, 14:18 UT
     The Minor Planet Electronic Circulars contain information on unusual
         minor planets, routine data on comets and natural satellites,
         and occasional editorial announcements.  They are published
    on behalf of Division F of the International Astronomical Union by the
          Minor Planet Center, Smithsonian Astrophysical Observatory,
                          Cambridge, MA 02138, U.S.A.
			  
             Prepared using the Tamkin Foundation Computer Network
                              MPC at CFA.HARVARD.EDU
            URL https://www.minorplanetcenter.net/    ISSN 1523-6714
                                    2024 JB7                                    
Observations:
     K24J07B  C2024 05 02.58288517 31 54.788+01 21 34.41         21.61GVEJ229F51
     K24J07B  C2024 05 02.60388117 31 40.132+01 19 31.03         21.16GVEJ229F51
     K24J07B  C2024 05 02.61313517 31 33.741+01 18 36.94         21.12GVEJ229F51
     K24J07B* C2024 05 07.56110516 58 03.749-03 50 44.00         22.08wXEJ229F52
     K24J07B  C2024 05 07.57223516 58 00.340-03 51 10.40         21.62wXEJ229F52
     K24J07B  C2024 05 07.58337216 57 56.950-03 51 36.99         21.67wXEJ229F52
     K24J07B  C2024 05 07.59450016 57 53.585-03 52 03.06         21.91wXEJ229F52
     K24J07B  C2024 05 08.52432516 54 05.285-04 26 47.84         21.88GVEJ229F51
     K24J07B  C2024 05 08.52514416 54 05.066-04 26 49.65         22.11GVEJ229F51
     K24J07B 3C2024 05 08.60460916 53 43.516-04 29 32.99         21.99GVEJ229T14
     K24J07B 3C2024 05 08.60581916 53 43.206-04 29 35.44         21.93GVEJ229T14
     K24J07B 3C2024 05 08.60830416 53 42.544-04 29 40.54         21.98GVEJ229T14
Observer details:
F51 Pan-STARRS 1, Haleakala.  Observers J. Herman, T. Lowe, P. Minguez, A.
    Schultz, I. Smith.  Measurers K. Chambers, T. de Boer, J. Fairlamb, H.
    Gao, M. Huber, C.-C. Lin, E. Magnier, Y. Ramanjooloo, R. Wainscoat, R.
    Weryk.  1.8-m Ritchey-Chretien + CCD.
F52 Pan-STARRS 2, Haleakala.  Observers J. Herman, T. Lowe, P. Minguez, A.
    Schultz, I. Smith.  Measurers K. Chambers, T. de Boer, J. Fairlamb, H.
    Gao, M. Huber, C.-C. Lin, E. Magnier, Y. Ramanjooloo, R. Wainscoat, R.
    Weryk.  1.8-m Ritchey-Chretien + CCD.
T14 Canada-France-Hawaii Telescope, Maunakea.  Observers R. Wainscoat, H.
    Januszewski, T. Burdullis.  Measurers R. Weryk, R. Wainscoat.  3.6-m f/4.1
    reflector + CCD.
Orbital elements:
2024 JB7                                                 Earth MOID = 0.0150 AU
Epoch 2024 Mar. 31.0 TT = JDT 2460400.5                 MPC                     
M   4.81811              (2000.0)            P               Q                  
n   0.39901648     Peri.  324.95829     -0.96537766     -0.26031046             
a   1.8272957      Node   199.97347     +0.24918988     -0.90115466             
e   0.5243375      Incl.    2.83002     +0.07713865     -0.34663920             
P   2.47           H   26.09          G   0.15           U   8                  
Residuals in seconds of arc
240502 F51  0.1+  0.1-    240507 F52  0.1-  0.1+    240508 F51  0.1+  0.1+
240502 F51  0.2-  0.0     240507 F52  0.0   0.1-    240508 T14  0.1-  0.0
240502 F51  0.1+  0.1+    240507 F52  0.0   0.3+    240508 T14  0.1+  0.0
240507 F52  0.1-  0.1-    240508 F51  0.0   0.1+    240508 T14  0.0   0.0
Ephemeris:
2024 JB7                 a,e,i = 1.83, 0.52, 3                   q = 0.8692
Date    TT    R. A. (2000) Decl.     Delta      r    Elong.  Phase     V
2024 04 09    03 23 02.6 +16 39 01   0.1085  0.9129    33.4   142.8    28.3
...
2024 04 24    23 26 55.7 +32 08 42   0.02274 0.9887    41.3   137.8    24.4
...
2024 05 02    17 38 31.3 +02 23 48   0.04667 1.0395   131.8    46.3    21.3
...
2024 05 08    16 56 12.9 -04 07 00   0.08261 1.0808   148.8    28.9    22.1
2024 05 09    16 52 18.1 -04 42 13   0.08888 1.0879   150.7    27.0    22.2
2024 05 10    16 48 50.4 -05 13 13   0.09521 1.0951   152.5    25.2    22.3
...
2024 05 16    16 34 07.5 -07 24 08   0.1345  1.1390   160.9    16.9    22.9
...
2024 05 24    16 22 53.8 -09 09 13   0.1907  1.1996   167.5    10.5    23.6
...
2024 06 08    16 13 12.9 -11 20 38   0.3115  1.3162   163.1    12.9    24.9
A. U. Tomatic                (C) Copyright 2024 MPC           M.P.E.C. 2024-J229
    
    
More information about the Iaude
mailing list